Theta_e
339 343 343 340 343 344 340 335 332 327 325 324 320 318 316 315 314 313 311 308 308 309 309 308 307 308 307 307 308 308 307 306 303 306 308 310 310 310 310 310 310 308 307
339 339 339 341 340 337 334 329 326 325 325 320 321 319 315 314 314 313 309 308 307 306 306 307 306 306 307 308 307 308 306 307 305 303 306 307 308 309 310 309 308 306 307
340 337 336 337 336 330 326 325 324 323 323 321 319 317 317 316 313 309 307 307 306 305 305 305 305 305 305 304 306 306 306 306 306 304 304 307 306 308 306 307 305 305 306
338 334 333 333 328 324 323 323 322 322 321 318 318 318 317 314 311 308 307 306 305 304 304 303 303 303 303 304 305 306 306 305 305 304 304 304 304 305 304 300 299 302 302
334 334 331 325 323 322 321 319 318 319 316 316 315 314 315 313 310 306 305 305 303 302 302 301 302 302 301 300 302 303 304 303 303 302 302 302 300 299 296 297 298 300 302
334 328 322 321 319 317 317 315 314 312 311 311 310 311 310 303 299 301 304 302 302 301 300 301 301 300 301 299 298 298 299 300 301 300 301 297 297 297 296 296 298 297 295
324 320 318 316 314 312 312 311 310 308 309 308 306 304 303 300 297 298 300 302 301 300 300 300 299 299 300 301 301 301 301 298 298 301 300 299 295 296 296 297 298 297 297
318 315 313 311 310 310 308 308 308 308 308 305 302 302 300 298 296 296 299 302 300 299 299 299 299 299 296 297 301 302 303 303 302 301 301 297 297 297 298 300 299 299 299
312 310 309 308 309 307 306 305 306 305 305 302 301 301 298 296 295 295 299 300 297 296 297 296 298 297 291 291 299 299 302 302 301 299 298 297 296 296 298 300 297 296 294
309 308 310 311 309 304 303 303 302 301 297 299 298 299 298 296 293 294 296 295 295 294 296 298 291 292 290 290 298 298 298 298 300 302 305 304 301 299 299 301 299 294 294
310 310 310 308 304 303 301 301 300 298 297 297 296 296 296 295 293 292 293 293 293 293 294 295 295 289 289 289 291 294 292 295 300 302 303 302 301 298 299 300 301 299 295
306 304 301 301 301 300 299 298 298 297 296 295 294 293 293 294 293 291 290 291 294 295 294 295 294 289 289 289 292 289 290 296 300 300 299 295 296 294 298 299 301 302 302
302 300 299 299 298 299 297 296 296 298 295 294 292 291 291 292 291 290 289 290 291 294 293 290 289 289 290 293 291 291 294 298 298 298 295 294 294 296 299 299 301 303 302
298 298 297 295 297 296 296 298 295 294 293 292 291 289 290 291 291 292 293 293 292 293 292 293 291 292 291 293 296 298 298 297 297 296 294 295 296 296 297 298 297 299 299
295 294 293 292 293 292 292 293 293 294 293 292 291 292 290 288 287 288 290 292 292 288 294 294 294 294 295 295 297 298 298 297 294 293 293 293 294 295 296 297 297 298 298
292 292 291 291 291 291 290 288 289 290 289 289 289 290 288 288 287 287 286 286 286 286 292 292 292 293 293 294 295 296 296 292 291 291 292 292 293 295 294 296 296 296 298
292 291 291 292 291 290 289 288 286 288 288 288 287 287 287 286 286 286 286 286 286 290 292 291 291 292 293 294 295 294 291 290 290 290 291 292 293 295 294 294 294 296 297
292 292 292 292 291 290 290 288 288 288 286 286 287 287 286 285 285 285 286 289 291 291 291 291 291 292 292 293 294 292 291 289 288 289 290 292 295 295 294 294 295 295 298
292 291 292 292 292 291 291 292 291 289 287 286 286 285 285 285 285 286 287 290 289 289 290 290 291 291 292 293 294 291 290 288 287 289 290 292 296 295 294 295 295 292 296
292 291 291 292 292 292 292 291 290 288 287 287 287 286 288 289 288 288 289 289 289 290 290 290 291 291 292 292 294 291 289 288 287 288 289 293 295 295 294 294 294 293 297
293 294 291 293 292 292 291 290 289 288 287 287 287 285 283 288 287 287 287 287 288 289 290 290 291 291 291 292 293 290 288 287 287 288 292 299 301 300 299 299 300 301 299
294 294 293 292 292 291 290 290 289 288 287 286 286 285 284 288 288 287 287 287 288 289 290 291 291 291 291 291 291 291 288 286 289 291 295 299 300 300 300 299 298 299 299
295 294 293 292 291 290 290 290 290 290 289 289 289 288 288 287 287 287 287 288 288 289 290 291 291 291 292 292 293 293 290 287 291 293 297 298 299 299 299 298 298 298 298
294 293 292 292 291 291 291 291 291 288 290 290 289 289 288 287 287 287 288 288 289 289 290 291 291 291 292 292 293 293 292 290 293 296 298 298 298 298 299 298 298 298 298
294 293 293 292 292 291 291 291 291 291 290 290 289 289 289 288 288 288 288 288 289 289 289 290 291 291 291 291 291 291 286 284 290 287 298 299 298 298 298 298 298 298 298
294 294 293 293 292 292 292 292 292 291 291 290 290 290 290 289 288 288 288 288 288 288 289 289 290 291 291 291 288 284 284 284 288 285 296 297 296 295 297 297 297 297 297
Wind_Speed
12 13 17 15 17 17 14 13 14 13 15 14 14 14 14 12 11 10 10 9 11 9 7 7 7 6 4 5 5 5 5 5 10 11 11 13 16 17 16 15 15 15 12
14 13 16 18 15 15 14 14 16 15 14 14 17 15 14 13 11 10 9 10 11 9 7 7 7 5 7 6 5 7 6 7 9 15 13 13 15 16 17 16 13 11 12
16 12 15 17 16 15 16 15 15 16 17 16 16 15 15 13 12 10 10 10 10 8 8 7 8 10 9 8 7 8 7 7 8 10 12 11 13 13 14 15 13 12 10
15 19 15 17 17 18 18 17 16 16 19 16 14 15 14 14 12 10 10 9 9 9 8 9 11 11 11 11 9 9 8 9 9 10 11 11 12 14 13 12 12 10 10
14 18 12 15 18 18 17 18 16 16 15 15 15 12 15 12 9 10 10 9 9 9 10 10 12 12 14 13 8 9 10 10 10 10 10 11 12 14 13 11 12 11 11
18 17 17 17 20 19 17 18 18 16 16 15 13 14 14 9 12 11 10 9 9 10 11 10 9 13 13 11 12 11 10 9 9 10 9 12 15 11 11 12 11 11 8
17 17 21 18 20 21 19 18 17 16 16 15 15 14 12 12 14 10 11 9 10 11 11 10 9 9 13 12 12 8 6 5 6 10 11 11 12 14 13 13 14 12 10
18 18 21 22 22 21 21 19 17 16 16 12 15 15 11 9 14 11 10 11 10 11 11 11 10 11 14 14 12 11 10 9 9 9 9 10 10 11 11 10 11 12 8
20 19 20 24 24 23 21 19 15 17 14 14 15 15 12 9 9 7 7 9 10 10 10 12 11 12 18 19 12 12 11 10 7 6 7 10 8 13 17 9 12 12 9
21 21 20 23 24 23 20 16 12 15 16 14 15 13 13 11 11 8 7 7 9 7 7 8 18 16 17 17 12 10 10 11 12 13 11 11 13 15 18 12 9 10 10
22 22 20 21 23 22 19 15 15 16 17 16 17 13 13 11 11 15 12 9 7 5 7 8 10 17 17 15 11 10 10 12 12 10 10 11 11 12 9 10 11 9 9
23 23 21 21 18 17 19 16 17 17 18 16 14 12 10 10 13 15 17 14 7 8 8 8 9 15 10 8 11 13 12 10 8 8 10 10 10 9 9 9 10 10 8
25 23 21 21 19 16 18 18 15 18 14 12 11 10 9 7 9 16 15 12 14 8 8 11 8 6 6 6 10 13 10 10 9 9 10 8 9 8 9 9 10 11 8
26 24 21 21 19 15 12 12 12 13 12 11 10 9 8 8 7 6 6 6 6 9 10 5 5 4 4 5 9 9 11 11 11 10 9 8 8 8 8 7 6 8 6
24 21 20 16 18 17 14 11 12 10 10 10 10 9 9 8 8 12 8 6 9 5 2 6 8 8 10 11 9 11 11 11 11 10 10 10 9 8 8 7 6 6 6
23 17 15 14 15 15 17 17 28 25 24 21 18 14 11 16 15 14 19 16 5 7 8 8 10 11 11 10 11 12 12 12 10 10 9 9 9 8 8 6 6 5 7
25 20 16 17 15 16 17 15 16 18 26 24 22 22 20 14 15 17 11 9 12 5 10 10 10 10 10 10 11 11 11 10 10 9 9 9 8 7 7 7 7 7 6
22 32 17 15 16 16 15 14 13 13 14 13 18 14 18 18 16 6 2 4 9 10 11 10 10 10 9 11 11 11 11 9 9 9 9 9 8 8 7 7 7 8 8
20 16 17 15 14 16 13 13 14 15 14 13 12 14 13 13 11 10 11 10 10 10 10 11 9 9 10 11 10 9 10 9 8 8 8 9 8 7 7 7 7 8 8
18 27 20 16 14 14 13 14 14 14 13 12 9 9 7 7 10 12 11 10 9 10 9 10 9 10 11 11 10 9 9 10 9 8 9 8 7 7 7 7 6 7 8
16 16 21 15 14 14 14 14 14 14 12 10 10 8 5 10 11 10 9 10 10 9 9 8 9 11 10 10 11 10 9 9 9 9 9 10 10 10 10 9 9 9 10
15 15 15 15 14 14 14 14 14 14 13 13 11 9 5 10 10 10 10 10 9 8 7 8 9 10 9 10 11 11 9 9 10 11 11 11 10 10 10 11 11 10 9
15 17 17 15 15 17 15 14 13 13 13 12 11 11 10 10 9 10 10 9 8 8 8 9 10 10 10 10 10 10 10 9 10 10 10 11 11 10 10 10 11 11 11
17 18 18 16 15 15 14 14 13 13 13 12 11 11 10 9 9 10 9 8 8 9 9 9 10 13 12 11 10 11 10 11 9 9 12 11 11 11 10 10 10 12 10
17 17 17 16 16 15 15 14 14 13 13 12 12 11 9 9 9 9 8 8 8 9 11 10 10 13 14 17 16 16 15 14 12 11 10 12 13 14 13 11 10 10 13
15 16 15 14 14 13 13 13 13 13 13 12 11 9 9 9 8 8 8 8 8 10 11 9 12 15 16 14 16 15 14 14 13 13 10 12 12 12 11 13 16 10 13
Wind_Direction
180 172 153 158 163 157 148 140 129 129 133 129 114 109 111 114 111 108 103 107 89 77 67 64 55 35 26 18 356 352 345 336 300 317 323 337 334 337 329 341 332 330 329
152 179 157 158 156 150 140 129 126 130 138 128 127 123 117 113 121 113 106 89 85 79 68 58 43 27 25 16 349 353 351 327 317 323 337 338 338 329 338 338 336 328 325
163 163 156 152 144 133 126 129 127 129 126 130 123 121 121 126 117 111 104 96 88 81 66 55 39 24 19 0 353 350 344 326 331 329 332 334 336 337 335 337 333 328 322
181 158 168 151 133 129 128 129 130 131 131 123 116 123 125 118 117 111 102 97 89 77 65 51 39 24 11 3 358 348 342 333 346 343 334 337 335 341 339 330 326 332 327
169 141 177 143 128 123 123 120 121 119 111 109 114 113 112 115 115 113 99 92 89 80 60 45 43 27 24 18 354 346 348 351 349 341 335 330 337 338 341 326 319 326 336
166 148 142 138 122 120 123 118 116 111 103 100 99 106 98 98 92 87 99 93 82 68 56 46 38 29 17 8 7 13 14 353 346 337 333 343 333 331 325 319 325 343 352
134 139 129 129 121 117 117 113 110 108 109 109 103 90 99 101 91 92 88 84 71 63 55 41 32 28 13 1 11 9 25 12 343 323 332 344 330 336 321 331 339 341 343
130 128 124 123 119 118 114 113 113 111 108 108 100 106 104 96 94 94 87 81 73 63 54 40 33 25 18 3 5 5 7 356 359 344 351 339 338 328 338 331 334 341 339
132 129 129 126 125 120 116 118 119 109 107 112 99 104 96 86 73 66 80 77 72 59 57 43 29 32 14 6 11 4 348 358 357 357 295 283 307 357 351 347 3 0 356
133 129 133 129 123 117 118 120 118 116 115 104 99 86 97 96 60 52 67 76 62 57 56 50 49 31 15 10 6 349 346 356 356 358 2 11 17 5 354 12 1 6 356
128 124 127 121 117 116 116 117 119 113 106 99 91 87 80 72 60 57 47 64 59 58 52 41 38 18 16 0 334 10 347 316 11 4 9 12 14 0 357 6 5 6 5
118 115 115 116 114 112 115 121 116 108 100 98 101 86 80 77 67 61 60 51 40 64 50 47 41 7 326 11 12 338 322 356 16 19 24 6 4 354 357 356 1 360 12
117 116 113 108 106 115 120 116 114 104 100 100 98 101 95 89 78 68 61 60 48 67 50 42 353 332 340 29 21 344 358 18 20 29 17 2 357 346 358 360 7 1 2
115 113 111 104 110 110 100 101 102 105 107 105 108 106 105 84 70 68 65 79 90 64 54 62 21 8 41 14 18 16 27 22 14 20 10 354 359 1 8 360 3 356 356
110 109 104 102 102 96 81 78 90 72 89 111 107 102 92 86 68 58 51 61 53 36 1 58 49 38 34 30 23 28 30 20 20 14 11 356 1 360 6 2 8 352 3
106 104 108 109 103 96 89 79 63 78 78 74 73 86 85 84 80 75 58 46 10 312 67 54 47 39 36 21 22 25 26 18 12 8 2 354 357 2 0 2 7 359 14
109 109 103 99 100 106 100 103 102 72 75 73 77 73 73 92 76 67 85 75 25 47 60 53 47 40 29 26 26 27 18 13 1 5 358 355 353 3 5 11 3 9 9
101 105 105 106 103 100 106 111 111 110 102 90 61 79 71 68 60 49 333 114 68 58 55 47 45 37 30 26 25 19 12 9 1 354 358 355 357 5 10 11 11 15 19
103 100 103 104 103 108 112 116 106 103 100 104 100 81 80 92 95 66 45 61 60 56 51 47 37 33 31 32 23 13 9 5 355 354 356 354 2 9 12 7 1 15 4
98 106 109 111 115 113 109 108 109 105 101 101 110 113 114 100 74 63 59 58 57 55 48 45 33 34 33 26 21 14 9 8 359 358 353 352 356 3 9 1 2 13 28
111 109 112 107 104 111 113 107 105 104 109 109 92 71 20 84 78 72 67 57 51 46 42 39 36 37 28 22 22 19 9 360 356 359 357 6 16 24 26 25 22 28 24
111 107 107 110 114 112 109 106 107 113 111 107 106 92 55 84 80 76 67 60 54 48 39 39 40 34 24 20 14 15 6 357 3 4 0 8 14 19 23 28 30 32 31
112 115 113 109 108 112 108 111 115 111 111 110 105 98 87 82 80 75 70 64 56 52 45 45 39 34 26 22 18 12 11 357 354 351 359 11 23 19 25 30 31 34 41
114 113 115 118 115 111 115 116 113 110 111 107 99 91 87 85 83 80 75 70 64 58 50 48 43 37 27 23 20 19 18 4 357 357 10 16 22 23 29 33 32 33 32
116 120 117 119 119 120 125 124 122 117 112 105 98 91 95 91 86 82 79 72 65 60 54 49 41 35 31 29 24 19 7 355 2 333 23 26 26 31 30 35 35 34 36
120 121 117 120 124 126 126 126 122 115 110 106 105 109 99 91 88 86 77 70 66 62 57 48 41 38 32 29 18 4 0 356 355 338 23 32 36 29 32 35 37 38 39